[[{"header":{"parameterUnit":"m.s-1","parameterCategory":1,"la1":30.2991,"la2":30.254,"lo1":-89.0895,"lo2":-89.0444,"dy":0.0017,"dx":0.0017,"nx":28,"ny":28,"refTime":"2024-05-19T09:00:00:Z","depth":0,"parameterNumber":2,"parameterNumberName":"U-component_of_WINDS"},"data":[0,0,0,0,0,0,0,0,0,0,0,0,0,0,0,0,0,0,0,0,0,0,0,0,0,0,0,0,0,0,0,0,0,0,0,0,0,0,0,0,0,0,0,0,0,0,0,0,0,0,0,0,0,0,0,0,0,0,0.7767,0.7768,0,0.7886,0.7887,0.7889,0.7921,0.7921,0.792,0.7919,0.8045,0.8048,0.8052,0,0,0,0,0,0,0,0,0,0,0,0,0,0.7573,0.7577,0.7767,0.7769,0.777,0.7886,0.7887,0.7889,0.7922,0.7921,0.792,0.7919,0.8043,0.8048,0.8053,0,0,0,0,0,0,0,0,0,0,0,0,0,0.7671,0.7578,0.7767,0.78,0.7804,0.7885,0.7887,0.7889,0.7922,0.7921,0.792,0.7919,0.8042,0.8048,0.8053,0.8111,0,0,0.8072,0.8074,0,0,0,0,0,0,0,0,0.7666,0.7678,0.7794,0.7798,0.7803,0.7888,0.7865,0.7964,0.7922,0.7877,0.7919,0.7918,0.7993,0.8003,0.8028,0.8117,0.8122,0.8072,0.8076,0.8078,0.808,0,0,0,0,0,0,0,0.7659,0.7673,0.7814,0.7795,0.7801,0.7811,0.7824,0.7884,0.794,0.7881,0.7884,0.7897,0.7996,0.8022,0.8031,0.8124,0.8072,0.8077,0.8081,0.8083,0.8268,0.8269,0,0,0,0,0,0,0.7646,0.7668,0.781,0.7818,0.773,0.7815,0.7829,0.7862,0.7939,0.795,0.7898,0.7898,0.8012,0.8024,0.8036,0.8109,0.8078,0.8084,0.8087,0.8267,0.8268,0.827,0,0,0,0,0,0,0.7641,0.7658,0.7806,0.7743,0.7763,0.7819,0.7855,0.7864,0.7891,0.7952,0.7962,0.7914,0.8012,0.8027,0.8092,0.8114,0.8087,0.8092,0.8265,0.8267,0.8269,0.8256,0,0,0,0,0,0,0.7636,0.7656,0.7677,0.7744,0.7766,0.7858,0.7857,0.7868,0.7901,0.7902,0.797,0.798,0.8012,0.8083,0.8098,0.8122,0.8097,0.8263,0.8266,0.8268,0.8254,0.8257,0.8259,0,0,0,0,0,0.7629,0.7669,0.7678,0.7695,0.7793,0.786,0.7873,0.7908,0.7902,0.7925,0.7964,0.7978,0.8109,0.8089,0.8107,0.8132,0.8262,0.8265,0.8268,0.8253,0.8256,0.8259,0,0,0,0,0,0,0.7605,0.7679,0.7689,0.7752,0.7799,0.7865,0.7894,0.791,0.796,0.796,0.8002,0.8018,0.808,0.8113,0.8089,0.8193,0.8186,0.8193,0.8169,0.8172,0.8175,0.8166,0.8102,0,0,0,0,0,0.7607,0.7653,0.7716,0.7765,0.7788,0.7837,0.7867,0.789,0.7941,0.7962,0.8006,0.8056,0.8109,0.8142,0.8194,0.8259,0.8276,0.8286,0.8288,0.829,0.8295,0.8334,0.8339,0.828,0.8279,0.8279,0,0,0.7612,0.7658,0.7685,0.7762,0.7801,0.7849,0.7854,0.7904,0.7941,0.797,0.8034,0.8068,0.8127,0.8192,0.8224,0.8222,0.8315,0.8294,0.8294,0.8299,0.8337,0.8343,0.8348,0.8282,0.8281,0.8281,0,0,0.7646,0.7684,0.7731,0.777,0.7829,0.7862,0.7873,0.7936,0.796,0.8025,0.8047,0.8093,0.8182,0.8223,0.8256,0.8307,0.8323,0.8323,0.8336,0.8373,0.8377,0.8382,0.8401,0.8407,0.8328,0.8328,0.8328,0,0.7644,0.7717,0.7753,0.7803,0.7837,0.7864,0.7912,0.7949,0.8023,0.8046,0.8043,0.8157,0.8198,0.8275,0.8287,0.8312,0.8328,0.8315,0.8374,0.8378,0.8383,0.8402,0.8409,0.8328,0.8328,0.8328,0.8328,0,0.7713,0.7763,0.7794,0.7863,0.7901,0.795,0.7995,0.8029,0.8049,0.8083,0.8149,0.82,0.8263,0.8283,0.8304,0.8363,0.836,0.8365,0.8359,0.8388,0.8406,0.8414,0.8328,0.8328,0.8328,0.8328,0,0,0.7734,0.7824,0.7834,0.7867,0.7935,0.7975,0.8026,0.8087,0.8116,0.8166,0.8211,0.8287,0.8292,0.8329,0.8355,0.8387,0.8426,0.8388,0.8391,0.8394,0.8497,0.8493,0.85,0.8437,0.8438,0.844,0.8492,0,0.7777,0.7867,0.7902,0.7977,0.8024,0.8052,0.8097,0.8145,0.8178,0.8224,0.8262,0.8315,0.8317,0.834,0.8373,0.8414,0.8447,0.8411,0.848,0.8482,0.8465,0.851,0.8506,0.8553,0.8499,0.8501,0.8501,0,0.7838,0.7888,0.7967,0.8031,0.8052,0.8091,0.8151,0.8195,0.825,0.8272,0.8314,0.8338,0.8395,0.8385,0.8465,0.8439,0.847,0.8495,0.8498,0.8506,0.8493,0.852,0.8568,0.8575,0.8513,0.8512,0.8511,0,0.7846,0.7934,0.7993,0.802,0.8095,0.8122,0.8155,0.821,0.8244,0.8297,0.8321,0.8379,0.8412,0.8458,0.8498,0.8487,0.8574,0.8568,0.8595,0.8594,0.8612,0.861,0.8667,0.8631,0.8631,0.8631,0.8631,0,0.789,0.7938,0.7998,0.8034,0.8089,0.8129,0.8183,0.8218,0.8266,0.8311,0.8339,0.8381,0.8432,0.8481,0.8513,0.8574,0.8589,0.8609,0.8617,0.8607,0.8604,0.8627,0.8625,0.8633,0.8632,0.8632,0.8632,0,0.7908,0.795,0.8017,0.8083,0.81,0.8138,0.8195,0.8233,0.8268,0.8324,0.834,0.8395,0.8455,0.8499,0.8576,0.8598,0.8664,0.8672,0.8644,0.8649,0.8674,0.8671,0.8747,0.876,0.8715,0.8716,0.8716,0,0.7934,0.7971,0.8041,0.8072,0.8105,0.8156,0.8191,0.8233,0.827,0.8337,0.8366,0.8427,0.8478,0.8572,0.862,0.868,0.869,0.8713,0.8699,0.8688,0.8691,0.8688,0.8693,0.8714,0.8715,0.8715,0.8715,0,0.7974,0.7993,0.8043,0.8101,0.8142,0.819,0.8238,0.8263,0.8314,0.8354,0.8415,0.8454,0.8533,0.8594,0.8659,0.8694,0.8714,0.8719,0.8729,0.8718,0.8701,0.8712,0.865,0.8717,0.8717,0.8717,0.8717,0.8716,0.7997,0.8032,0.8087,0.8142,0.8183,0.8228,0.8266,0.8306,0.8357,0.8423,0.8446,0.8508,0.8565,0.8654,0.8691,0.8741,0.8742,0.8755,0.8759,0.8762,0.8761,0.8693,0.8753,0.8753,0.8753,0.8753,0.8754,0,0.804,0.8077,0.8127,0.8193,0.8237,0.8251,0.8306,0.8342,0.8396,0.8447,0.8497,0.8567,0.8627,0.868,0.8742,0.8773,0.8784,0.8788,0.8786,0.8794,0.8757,0.8743,0.8778,0.8778,0.8778,0.8778,0.8778,0.8778,0.8067,0.8127,0.8153,0.8234,0.8272,0.8332,0.8363,0.8405,0.8446,0.8522,0.8572,0.8606,0.8658,0.8725,0.8781,0.8795,0.8817,0.8819,0.8836,0.88,0.8797,0.8794,0.8781,0.8824,0.8824,0.8869,0.8869,0.887]},{"header":{"parameterUnit":"m.s-1","parameterCategory":1,"la1":30.2991,"la2":30.254,"lo1":-89.0895,"lo2":-89.0444,"dy":0.0017,"dx":0.0017,"nx":28,"ny":28,"refTime":"2024-05-19T09:00:00:Z","depth":0,"parameterNumber":3,"parameterNumberName":"V-component_of_WINDS"},"data":[0,0,0,0,0,0,0,0,0,0,0,0,0,0,0,0,0,0,0,0,0,0,0,0,0,0,0,0,0,0,0,0,0,0,0,0,0,0,0,0,0,0,0,0,0,0,0,0,0,0,0,0,0,0,0,0,0,0,-1.3905,-1.3906,0,-1.3962,-1.3963,-1.3963,-1.3966,-1.3965,-1.3965,-1.3964,-1.4021,-1.4023,-1.4025,0,0,0,0,0,0,0,0,0,0,0,0,0,-1.3799,-1.3801,-1.3905,-1.3906,-1.3907,-1.3962,-1.3963,-1.3963,-1.3966,-1.3965,-1.3964,-1.3964,-1.402,-1.4023,-1.4025,0,0,0,0,0,0,0,0,0,0,0,0,0,-1.385,-1.3802,-1.3905,-1.3915,-1.3916,-1.3962,-1.3963,-1.3964,-1.3966,-1.3965,-1.3964,-1.3963,-1.4019,-1.4023,-1.4026,-1.4065,0,0,-1.4036,-1.4037,0,0,0,0,0,0,0,0,-1.3847,-1.3854,-1.3913,-1.3914,-1.3916,-1.3956,-1.3946,-1.3998,-1.3967,-1.3947,-1.3964,-1.3963,-1.4,-1.4005,-1.4018,-1.4068,-1.4071,-1.4036,-1.4038,-1.4039,-1.404,0,0,0,0,0,0,0,-1.3843,-1.3851,-1.3928,-1.3913,-1.3915,-1.3916,-1.3922,-1.3956,-1.3978,-1.3949,-1.3949,-1.3956,-1.4001,-1.4015,-1.4019,-1.4071,-1.4036,-1.4039,-1.4041,-1.4042,-1.416,-1.4161,0,0,0,0,0,0,-1.3838,-1.3848,-1.3926,-1.3929,-1.3878,-1.3919,-1.3926,-1.3944,-1.3978,-1.3982,-1.3957,-1.3956,-1.401,-1.4015,-1.4021,-1.4072,-1.4039,-1.4042,-1.4044,-1.4159,-1.416,-1.4162,0,0,0,0,0,0,-1.3836,-1.3845,-1.3924,-1.3889,-1.3899,-1.3922,-1.3942,-1.3946,-1.396,-1.3984,-1.3988,-1.3967,-1.4009,-1.4016,-1.4055,-1.4074,-1.4044,-1.4046,-1.4157,-1.4159,-1.4161,-1.4173,0,0,0,0,0,0,-1.3833,-1.3844,-1.3859,-1.3889,-1.3901,-1.3957,-1.3943,-1.3947,-1.3965,-1.3965,-1.3995,-1.3999,-1.4009,-1.405,-1.4058,-1.4078,-1.4049,-1.4156,-1.4158,-1.416,-1.4171,-1.4175,-1.4179,0,0,0,0,0,-1.3829,-1.386,-1.386,-1.3869,-1.392,-1.3958,-1.3964,-1.3976,-1.3967,-1.3983,-1.3999,-1.3998,-1.407,-1.4054,-1.4063,-1.4084,-1.4155,-1.4158,-1.416,-1.417,-1.4174,-1.4178,0,0,0,0,0,0,-1.383,-1.3864,-1.3864,-1.3906,-1.3929,-1.3958,-1.3978,-1.398,-1.4006,-1.4005,-1.4017,-1.4024,-1.4063,-1.4077,-1.4059,-1.4126,-1.4111,-1.4116,-1.4115,-1.412,-1.4124,-1.4121,-1.4052,0,0,0,0,0,-1.3835,-1.3863,-1.3891,-1.3924,-1.3936,-1.3955,-1.3972,-1.3979,-1.4003,-1.4013,-1.4032,-1.4056,-1.4084,-1.4102,-1.413,-1.4172,-1.418,-1.4191,-1.4195,-1.4198,-1.4202,-1.4229,-1.4235,-1.4171,-1.4171,-1.4171,0,0,-1.3846,-1.3868,-1.3885,-1.3925,-1.3944,-1.3974,-1.3964,-1.3994,-1.4016,-1.4018,-1.4056,-1.4071,-1.4098,-1.414,-1.4159,-1.4153,-1.4222,-1.4201,-1.4204,-1.4207,-1.4232,-1.4238,-1.4244,-1.4172,-1.4172,-1.4172,0,0,-1.3882,-1.39,-1.3932,-1.3951,-1.398,-1.3993,-1.4001,-1.403,-1.404,-1.4079,-1.4082,-1.4107,-1.4155,-1.4176,-1.4192,-1.4237,-1.4238,-1.4245,-1.4265,-1.4291,-1.4296,-1.43,-1.4319,-1.4325,-1.4249,-1.4249,-1.4249,0,-1.3892,-1.3936,-1.3947,-1.3979,-1.3998,-1.4001,-1.4034,-1.4052,-1.4088,-1.4101,-1.4093,-1.4156,-1.4174,-1.4222,-1.4233,-1.4245,-1.4255,-1.4243,-1.4294,-1.4299,-1.4303,-1.4321,-1.4328,-1.425,-1.425,-1.425,-1.425,0,-1.3948,-1.3979,-1.4,-1.4037,-1.4058,-1.409,-1.4107,-1.4126,-1.4132,-1.4145,-1.4186,-1.4208,-1.4241,-1.4252,-1.4257,-1.4302,-1.4297,-1.4291,-1.4278,-1.431,-1.4327,-1.4334,-1.4251,-1.4251,-1.4251,-1.4251,0,0,-1.3986,-1.403,-1.4038,-1.4056,-1.4089,-1.4113,-1.4145,-1.4178,-1.4196,-1.4221,-1.425,-1.4291,-1.4287,-1.4305,-1.4312,-1.4334,-1.4372,-1.4326,-1.4327,-1.4336,-1.4425,-1.4431,-1.4439,-1.4372,-1.4373,-1.4374,-1.4424,0,-1.4027,-1.4086,-1.4098,-1.4149,-1.4179,-1.4183,-1.4212,-1.4235,-1.4249,-1.4276,-1.4291,-1.4321,-1.4312,-1.4324,-1.4346,-1.4363,-1.439,-1.4359,-1.44,-1.4401,-1.4396,-1.4447,-1.4453,-1.4499,-1.443,-1.4431,-1.4432,0,-1.4083,-1.4111,-1.4166,-1.4197,-1.421,-1.4236,-1.4268,-1.4294,-1.4321,-1.433,-1.4351,-1.4357,-1.4391,-1.4375,-1.4424,-1.4402,-1.4419,-1.443,-1.4433,-1.4439,-1.442,-1.4457,-1.4513,-1.4521,-1.4442,-1.4441,-1.444,0,-1.4109,-1.416,-1.42,-1.4215,-1.4251,-1.427,-1.4286,-1.4312,-1.4332,-1.436,-1.4374,-1.4405,-1.4423,-1.4447,-1.4461,-1.4447,-1.451,-1.4493,-1.4519,-1.4519,-1.4534,-1.4533,-1.4596,-1.4541,-1.454,-1.454,-1.454,0,-1.4155,-1.4189,-1.4213,-1.4238,-1.4276,-1.429,-1.4327,-1.4343,-1.4367,-1.4395,-1.4399,-1.4426,-1.4441,-1.447,-1.4481,-1.4522,-1.4529,-1.4538,-1.4541,-1.4539,-1.4538,-1.4552,-1.455,-1.4542,-1.4542,-1.4541,-1.4541,0,-1.4192,-1.4209,-1.4253,-1.4285,-1.4293,-1.4321,-1.4348,-1.4373,-1.4386,-1.4423,-1.4432,-1.4454,-1.4488,-1.4504,-1.4546,-1.4553,-1.46,-1.46,-1.4592,-1.4594,-1.4619,-1.4618,-1.4696,-1.4708,-1.4642,-1.4642,-1.4643,0,-1.4221,-1.4248,-1.4283,-1.4303,-1.432,-1.4351,-1.4372,-1.4386,-1.4408,-1.4442,-1.4463,-1.4498,-1.4527,-1.4582,-1.4602,-1.4634,-1.4636,-1.4661,-1.4641,-1.464,-1.464,-1.464,-1.4643,-1.4666,-1.4666,-1.4667,-1.4667,0,-1.4273,-1.428,-1.4311,-1.4345,-1.437,-1.4397,-1.4423,-1.4439,-1.4458,-1.4482,-1.4518,-1.454,-1.4585,-1.462,-1.4654,-1.4671,-1.4673,-1.4673,-1.4681,-1.4681,-1.4677,-1.4683,-1.4605,-1.4672,-1.4671,-1.4671,-1.4671,-1.4671,-1.4309,-1.4334,-1.4363,-1.4397,-1.4419,-1.4444,-1.447,-1.4487,-1.4518,-1.4556,-1.4562,-1.4601,-1.4629,-1.4676,-1.4694,-1.4725,-1.4719,-1.473,-1.4733,-1.4736,-1.474,-1.467,-1.473,-1.473,-1.473,-1.473,-1.473,0,-1.4363,-1.4382,-1.4414,-1.4452,-1.4479,-1.4479,-1.4508,-1.4531,-1.4566,-1.4592,-1.4621,-1.4664,-1.4698,-1.4721,-1.4756,-1.4777,-1.4779,-1.4786,-1.4786,-1.479,-1.4741,-1.4732,-1.4784,-1.4784,-1.4784,-1.4784,-1.4784,-1.4784,-1.4395,-1.4438,-1.4449,-1.4503,-1.4522,-1.4562,-1.4579,-1.4603,-1.4624,-1.4672,-1.4701,-1.4716,-1.4741,-1.4779,-1.4811,-1.4817,-1.4831,-1.4839,-1.4845,-1.4799,-1.4793,-1.4788,-1.478,-1.4841,-1.4841,-1.4891,-1.4892,-1.4892]}]]